TimePST,TemperatureF,Dew PointF,Humidity,Sea Level PressureIn,VisibilityMPH,Wind Direction,Wind SpeedMPH,Gust SpeedMPH,PrecipitationIn,Events,Conditions,WindDirDegrees,DateUTC
12:28 AM,15.8,14.0,93,30.18,6.0,Calm,Calm,-,N/A,,Mostly Cloudy,0,2013-02-10 08:28:00
12:53 AM,16.0,12.9,88,30.27,7.0,North,3.5,-,N/A,,Overcast,350,2013-02-10 08:53:00
1:53 AM,18.0,15.1,88,30.28,7.0,Calm,Calm,-,N/A,,Scattered Clouds,0,2013-02-10 09:53:00
2:53 AM,19.9,18.0,92,30.28,7.0,Calm,Calm,-,N/A,,Clear,0,2013-02-10 10:53:00
3:53 AM,19.0,16.0,88,30.28,8.0,Calm,Calm,-,N/A,,Clear,0,2013-02-10 11:53:00
4:11 AM,19.4,17.6,93,30.20,8.0,Calm,Calm,-,N/A,,Scattered Clouds,0,2013-02-10 12:11:00
4:19 AM,19.4,15.8,86,30.20,8.0,WNW,3.5,-,N/A,,Mostly Cloudy,300,2013-02-10 12:19:00
4:53 AM,19.0,17.1,92,30.29,5.0,Calm,Calm,-,N/A,,Overcast,0,2013-02-10 12:53:00
5:10 AM,19.4,19.4,100,30.21,2.0,Calm,Calm,-,N/A,,Overcast,0,2013-02-10 13:10:00
5:26 AM,19.4,17.6,93,30.21,4.0,Calm,Calm,-,N/A,,Overcast,0,2013-02-10 13:26:00
5:53 AM,21.0,19.0,92,30.30,7.0,Calm,Calm,-,N/A,,Overcast,0,2013-02-10 13:53:00
6:53 AM,21.9,19.9,92,30.31,7.0,WNW,3.5,-,N/A,,Overcast,300,2013-02-10 14:53:00
7:53 AM,24.1,23.0,96,30.33,6.0,Calm,Calm,-,N/A,,Overcast,0,2013-02-10 15:53:00
8:25 AM,24.8,24.8,100,30.24,6.0,Calm,Calm,-,N/A,,Overcast,0,2013-02-10 16:25:00
8:53 AM,26.1,25.0,96,30.34,6.0,Calm,Calm,-,N/A,,Overcast,0,2013-02-10 16:53:00
9:18 AM,26.6,26.6,100,30.25,6.0,Calm,Calm,-,N/A,,Overcast,0,2013-02-10 17:18:00
9:53 AM,28.0,27.0,96,30.35,8.0,West,3.5,-,N/A,,Overcast,280,2013-02-10 17:53:00
10:53 AM,32.0,28.9,88,30.34,10.0,Calm,Calm,-,N/A,,Overcast,0,2013-02-10 18:53:00
11:53 AM,30.9,28.0,89,30.32,10.0,South,4.6,-,N/A,,Overcast,190,2013-02-10 19:53:00
12:53 PM,33.1,27.0,78,30.31,10.0,Calm,Calm,-,N/A,,Overcast,0,2013-02-10 20:53:00
1:10 PM,32.0,26.6,80,30.22,10.0,Calm,Calm,-,N/A,,Overcast,0,2013-02-10 21:10:00
1:53 PM,33.1,27.0,78,30.30,10.0,Calm,Calm,-,N/A,,Overcast,0,2013-02-10 21:53:00
2:53 PM,33.1,27.0,78,30.29,10.0,Calm,Calm,-,N/A,,Overcast,0,2013-02-10 22:53:00
3:53 PM,33.1,28.0,82,30.29,10.0,Calm,Calm,-,N/A,,Overcast,0,2013-02-10 23:53:00
4:53 PM,32.0,27.0,82,30.30,10.0,Calm,Calm,-,N/A,,Overcast,0,2013-02-11 00:53:00
5:53 PM,32.0,27.0,82,30.29,10.0,South,3.5,-,N/A,,Overcast,180,2013-02-11 01:53:00
6:53 PM,30.9,27.0,85,30.29,10.0,WSW,4.6,-,N/A,,Overcast,240,2013-02-11 02:53:00
7:53 PM,30.9,27.0,85,30.29,10.0,WNW,3.5,-,N/A,,Overcast,290,2013-02-11 03:53:00
8:53 PM,28.9,26.1,89,30.29,10.0,Calm,Calm,-,N/A,,Overcast,0,2013-02-11 04:53:00
9:22 PM,28.4,24.8,86,30.21,10.0,Calm,Calm,-,N/A,,Scattered Clouds,0,2013-02-11 05:22:00
9:53 PM,25.0,23.0,92,30.28,8.0,Calm,Calm,-,N/A,,Clear,0,2013-02-11 05:53:00
10:53 PM,23.0,21.9,96,30.27,5.0,Calm,Calm,-,N/A,,Scattered Clouds,0,2013-02-11 06:53:00
11:35 PM,21.2,21.2,100,30.19,1.8,Calm,Calm,-,N/A,,Mostly Cloudy,0,2013-02-11 07:35:00